This demonstration page uses our WeatherBlox Daily Observations layout. Learn more.

Left ArrowRight Arrow

41.55636, -103.73856

Hourly Observations for March 18, 2021

Temp ( °F °C ) Dew Point ( °F °C ) Humidity (%) Winds ( mph kmh ) Pressure ( in mb ) Visibility ( mi km ) Precip ( " mm )
12:58 am 00:58 Clear 16 -8.8 11 -11.6 80 80 W 13 20 30.37 1028 10 16 0.00 0.00
1:58 am 01:58 Clear 18 -7.8 12 -10.9 79 79 WNW 6 9 30.37 1029 10 16 0.00 0.00
2:58 am 02:58 Clear 15 -9.5 11 -11.9 83 83 W 9 15 30.37 1029 10 16 0.00 0.00
5:58 am 05:58 Clear 25 -3.8 20 -6.7 81 81 S 5 7 30.35 1028 10 16 0.00 0.00
6:58 am 06:58 Clear 21 -6.3 17 -8.5 85 85 S 8 13 30.41 1030 10 16 0.00 0.00
8:58 am 08:58 Sunny 21 -6.2 15 -9.3 79 79 SW 13 20 30.42 1030 10 16 0.00 0.00
9:58 am 09:58 Sunny 25 -4.1 18 -8 75 75 SSW 10 17 30.45 1031 10 16 0.00 0.00
10:58 am 10:58 Sunny 28 -2.4 20 -6.5 74 74 WSW 9 15 30.44 1031 10 16 0.00 0.00
11:58 am 11:58 Sunny 31 -0.4 23 -5.1 71 71 WSW 9 15 30.40 1030 10 16 0.00 0.00
12:58 pm 12:58 Sunny 33 0.7 24 -4.3 70 70 WSW 3 6 30.41 1030 10 16 0.00 0.00
1:58 pm 13:58 Sunny 34 1.2 27 -2.7 76 76 WSW 12 19 30.38 1029 10 16 0.00 0.00
2:58 pm 14:58 Sunny 34 1.1 28 -2.4 78 78 SW 10 17 30.39 1029 10 16 0.00 0.00
3:58 pm 15:58 Sunny 33 0.6 28 -2.3 81 81 S 8 13 30.37 1029 10 16 0.00 0.00
4:58 pm 16:58 Sunny 32 0.1 28 -2.5 83 83 SSE 10 17 30.37 1028 10 16 0.00 0.00
5:58 pm 17:58 Sunny with Mist and Fog 31 -0.4 27 -2.6 85 85 S 12 19 30.37 1028 6 10 0.00 0.00
6:58 pm 18:58 Sunny 29 -1.4 25 -3.7 85 85 S 14 22 30.40 1029 10 16 0.00 0.00
7:58 pm 19:58 Clear 29 -1.6 25 -4.1 83 83 SSW 17 28 30.40 1029 10 16 0.00 0.00
8:58 pm 20:58 Clear 27 -2.7 23 -5.2 83 83 S 14 22 30.44 1031 10 16 0.00 0.00
9:58 pm 21:58 Mostly Cloudy 29 -1.4 23 -4.8 78 78 SSW 22 35 30.40 1029 10 16 0.00 0.00
10:58 pm 22:58 Clear 29 -1.8 23 -4.9 80 80 SSW 22 35 30.37 1028 10 16 0.00 0.00
11:58 pm 23:58 Clear 28 -2.3 21 -6.1 75 75 SSW 16 26 30.35 1028 10 16 0.00 0.00

Powered by AerisWeather